{"data":{"norad_id":42691,"intl_designator":"2017-023A","name":"KOREASAT 7","alt_names":[],"object_type":"PAYLOAD","status":"ACTIVE","operator":null,"country":"SKOR","launch_date":"2017-05-04","launch_site_code":"FRGUI","launch_vehicle":null,"mission":null,"orbit_class":"UNKNOWN","rcs_meters":null,"size_class":null,"mass_kg":null,"dimensions":null,"purposes":["comms"],"wikipedia_slug":null,"has_3d_model":false,"image_url":null,"decayed_at":null,"tle_current":{"epoch":"2026-09-19T21:15:38.616768Z","epoch_age_seconds":78847,"freshness":"FRESH","line1":"1 42691U 17023A   26262.88586362 -.00000366  00000+0  00000+0 0  9993","line2":"2 42691   0.0310  49.9391 0000956 143.0423 240.6290  1.00272381 34318","mean_motion":1.00272381,"eccentricity":9.56e-5,"inclination_deg":0.031,"raan_deg":49.9391,"arg_perigee_deg":143.0423,"mean_anomaly_deg":240.629,"bstar":0,"rev_number":3431,"period_min":1436.088368142,"perigee_km":35782.39694918,"apogee_km":35790.458813986,"semimajor_km":42164.564881583,"source":"CELESTRAK","updated_at":"2026-09-20T09:00:35.252541Z"}}}